Location: Unspecified
(48.7670°N, 0.0000°E)
Time: 14:01:24
(UTC+00:00)

Vanguard 2 Rocket - Pass Details

Date: 21 June 2019
Orbit: 554 x 3326 km, 32.9° (Epoch: 15 July)

Event Time Altitude Azimuth Distance (km) Brightness Sun altitude
Rises 23:38:32 0° 247° (WSW) 4,626 10.3 -17.6°
Reaches altitude 10° 23:41:21 10° 239° (WSW) 3,966 9.9 -17.6°
Maximum altitude 23:51:35 41° 175° (S) 3,154 9.1 -17.8°
Drops below altitude 10° 00:07:22 10° 114° (ESE) 6,036 10.8 -17.8°
Sets 00:12:56 0° 109° (ESE) 7,238 11.3 -17.8°
